Regional Weather Roundup
Issued by NWS

Home | Current Version | Previous Version | Graphics & Text | Print | Product List | Glossary On
Versions: 1 2 3 4 5 6 7 8 9 10 11 12 13 14 15 16 17 18 19 20 21 22 23 24 25 26 27 28 29 30 31 32 33 34 35 36 37 38 39 40 41 42 43 44 45 46 47 48 49 50
000
ASUS43 KTOP 250659
RWRKS

WEATHER ROUNDUP FOR KANSAS
NATIONAL WEATHER SERVICE GOODLAND KS
200 AM CDT MON JUL 25 2016

NOTE:  "FAIR" INDICATES FEW OR NO CLOUDS BELOW 12,000 FEET WITH NO
SIGNIFICANT WEATHER AND/OR OBSTRUCTIONS TO VISIBILITY.

KSZ001>006-013>018-027>032-041>047-250800-
NORTHWEST KANSAS

CITY           SKY/WX    TMP DP  RH WIND       PRES   REMARKS
GOODLAND       CLOUDY    64  60  87 S10       30.14F
HAYS           CLOUDY    72  57  60 N8        30.04R
HILL CITY      CLOUDY    75  60  59 W12G29    30.12R
RUSSELL        MOCLDY    70  65  84 NE9       30.00S
$$

KSZ061>065-074>080-084>089-250800-
SOUTHWEST KANSAS

CITY           SKY/WX    TMP DP  RH WIND       PRES   REMARKS
DODGE CITY     LGT RAIN  68  66  93 NW17G30   30.16R FOG
ELKHART          N/A     70  66  87 N7          N/A
GARDEN CITY    TSTM      66  65  96 NE21      30.13F FOG
GREAT BEND     CLOUDY    75  63  64 E7        29.98F THUNDER
LIBERAL        CLOUDY    70  63  78 N10G17    30.14F
$$

KSZ066>073-081>083-090>101-250800-
SOUTHEAST KANSAS

CITY           SKY/WX    TMP DP  RH WIND       PRES   REMARKS
CHANUTE        CLEAR     80  74  81 CALM      29.93F
COFFEYVILLE    CLOUDY    83  74  74 S7        29.93F
HUTCHINSON     CLEAR     79  75  87 E7        29.96F
NEWTON         CLOUDY    80  75  84 E10       29.98F
PARSONS        CLOUDY    82  74  76 S3        29.95F
WICHITA INTL   CLOUDY    85  71  63 E3        29.94F
WICHITA JABRA  MOCLDY    79  76  90 N6        29.96F
WINFIELD       CLOUDY    83  73  72 S7        29.95F
$$

KSZ007>012-019>026-033>040-048>060-102>105-250800-
NORTHEAST KANSAS

CITY           SKY/WX    TMP DP  RH WIND       PRES   REMARKS
CONCORDIA      CLOUDY    70  63  78 E5        30.02F
EMPORIA        CLOUDY    78  67  68 E6        29.97F
LAWRENCE       CLOUDY    75  70  84 NW5       29.98S
MANHATTAN      CLOUDY    75  66  73 NE8       29.99F
OLATHE IND     CLOUDY    78  71  79 N8        29.98F
OLATHE EXE     CLOUDY    78  71  79 NW3       29.99S
SALINA         MOCLDY    77  69  76 E6        29.98F
TOPEKA BILLARD CLOUDY    75  69  81 NW3       30.00R
TOPEKA FORBES  CLOUDY    76  73  91 N7        29.99F
$$



USA.gov is the U.S. government's official web portal to all federal, state and local government web resources and services.